FENGYUN 1C DEB, 43214

Orbit data source: Space-Track

FENGYUN 1C DEB, 43214 is space debris in SSO originally from a launch on Mon, 10 May 1999 UTC launched from the Taiyaun Space Center, China (TSC). Fengyun 1C debris stems from the Chinese weather satellite Fengyun-1C, which was intentionally destroyed by a Chinese anti-satellite missile in 2007. This event dramatically increased the amount of space debris, with thousands of trackable fragments posing hazards to satellites and human spaceflight. The Fengyun 1C debris cloud has become a focal point in discussions about space sustainability and the need for international regulations to prevent the creation of new debris.

Loading next visibility...
Identifier
43214, 1999-025EYN
Orbit
SSO
Country
Flag of CNCN / PRC
Related business
Manufacturer
Unknown
Mission
Spacecraft
Bus & Motor
Unknown
Mass
Unknown
Launch date (UTC)
1999-05-10 (27 years ago)
Launch vehicle
Unknown
Launch site
Taiyaun Space Center, China (TSC)
Object type
Payload
Rocket body
Debris
Shape & HBR
Unknown shape, 0.1 m
Radar Cross Section
Small (<0.1 m²)

Expand to show TLE details & history
Last TLE update: 1 week ago

TLE from 1 week ago
0 FENGYUN 1C DEB
1 43214U 99025EYN 26151.66989124  .00003787  00000-0  16019-2 0  9993
2 43214  98.7213 220.3688 0055805  96.4640 264.2898 14.25246008428237
Epoch: 2026-05-31T16:04Z
TLE epoch observation values (Epoch: 2026-05-31T16:04:38.603Z)
Latitude
0.00005°
Longitude
90.03971°
Altitude
814.799 km
Speed
7.444 km/s
True Right ascension
14h 41m 28s
True Declination
0° 00' 00"
Sunlit
Object was in full shadow at epoch
Visualization orbit readout
Latitude
Unknown
Longitude
Unknown
Altitude
Unknown
Speed
Unknown
Apparent Right ascension
Unknown
Apparent Declination
Unknown
Sunlit
N/A
Visualization observer readout
Local Sidereal Time
23:00:20
Azimuth
Unknown
Elevation
Unknown
Doppler factor
Unknown
Orbital elements
Apogee altitude
844.902 km
Perigee altitude
764.733 km
Semi-major axis
7,182.955 km
Eccentricity
0.00558
Inclination
98.7213°
RAAN
220.3688°
Arg. of periapsis
96.464°
True anomaly
263.65395°
Mean anomaly
264.2898°
Eccentric anomaly
263.97183°
Mean motion
3.56524 °/min
Orbital period
100.98 mins
BSTAR
0.0016019
Loading maneuver chart data...
Computing Atmospheric mass density...
Loading historical data...
Loading historical data...
Loading historical data...
Loading historical data...
Loading historical data...
Loading historical data...
Loading historical data...

Documentation

Showing up to 5 results
|